Location: Bethera
(33.2010°N, 79.7880°W)
Time: 15:55:37
(UTC-04:00)

Daily predictions for brighter satellites

Satellite Brightness Start Highest point End
(mag) Time Altitude Azimuth Time Altitude Azimuth Time Altitude Azimuth
Cosmos 1184 Rocket 3.2 19:37:13 10° N 19:40:28 43° E 19:43:41 10° SSE
Meteor 1-15 Rocket 4.3 19:37:07 10° S 19:43:00 74° E 19:48:51 10° NNE
GPS 2-04 Rocket1 2.9 19:39:23 10° WNW 19:43:40 89° SSW 19:48:00 10° ESE
Cosmos 1898 Rocket 4.2 19:43:10 10° N 19:47:50 33° ENE 19:52:28 10° SE
Cosmos 1814 Rocket 4.3 19:43:31 10° S 19:48:23 42° ESE 19:53:13 10° NNE
Milstar 3 Cent rocket 3.6 19:49:37 10° SSW 19:53:34 20° SSE 19:57:00 10° ESE
CZ-4 R/B 4.5 19:51:28 10° SW 19:54:34 21° W 19:57:43 10° NW
Tiangong 2 1.1 19:52:06 10° WNW 19:55:19 76° NNE 19:58:13 12° ESE
COSMO-SKYMED 1 4.4 19:53:14 10° N 19:57:12 36° WNW 20:01:09 10° SW
Cosmos 1709 Rocket 4.0 19:52:09 10° S 19:58:27 80° E 20:04:51 10° N
Cosmos 1707 3.7 19:55:25 10° NNE 19:58:48 27° ENE 20:02:11 10° SE
FENGYUN 3A 3.6 19:57:28 10° SSE 20:02:48 80° ENE 20:08:11 10° N
Cosmos 2369 Rocket 2.1 19:58:23 10° NNW 20:04:02 81° ENE 20:09:39 10° SSE
Cosmos 1340 Rocket 3.1 20:02:16 10° N 20:06:11 45° E 20:10:05 10° SSE
Cosmos 1758 Rocket 3.8 20:02:50 10° N 20:07:12 49° E 20:11:33 10° SSE
ALOS 2.3 20:02:34 10° S 20:07:14 84° WSW 20:11:55 10° NNW
NOSS 2 (A) 4.3 20:04:58 10° NNW 20:07:24 55° ENE 20:09:46 14° SE
Cosmos 389 Rocket 2.5 20:03:53 10° S 20:07:25 85° W 20:10:56 10° N
Envisat 4.5 20:05:29 14° E 20:07:29 17° ENE 20:10:43 10° NNE
Geosat 4.0 20:04:11 10° SSE 20:09:13 89° WSW 20:14:16 10° NNW
Cosmos 1726 Rocket 3.4 20:06:26 10° S 20:10:48 76° E 20:15:09 10° N
OAO 2 Rocket 3.8 20:06:03 10° W 20:11:17 59° SSW 20:15:36 15° SE
Lacrosse 5 1.8 20:07:13 10° NW 20:12:18 87° NE 20:17:22 10° SE
Cosmos 1271 Rocket 3.5 20:09:55 10° SSW 20:13:35 55° W 20:17:17 10° N
FREGAT/IRIS 2.5 20:13:09 10° SSE 20:16:10 83° ENE 20:19:12 10° N
Resurs 01 Rocket 2.7 20:16:42 19° ESE 20:18:28 25° ENE 20:22:04 10° NNE
Cosmos 2184 Rocket 4.2 20:16:20 10° SSE 20:22:16 47° E 20:28:18 10° NNE
Cosmos 2263 4.1 20:16:43 10° NNW 20:22:22 83° ENE 20:28:01 10° SSE
Cosmos 858 Rocket 4.5 20:19:55 10° N 20:25:09 65° ENE 20:30:19 10° SSE
Cosmos 2298 Rocket 4.1 20:21:39 10° N 20:26:55 58° ENE 20:31:34 13° SSE
CZ-2D R/B 3.8 20:26:32 27° ESE 20:27:54 36° ENE 20:31:25 10° N
FALCON 9 R/B 1.5 20:26:41 10° W 20:29:33 79° N 20:33:19 22° E
SJ-6B 2.8 20:27:06 10° SSE 20:31:11 85° ENE 20:35:12 10° N
Cosmos 841 Rocket 3.3 20:26:36 10° S 20:31:43 72° ESE 20:36:50 10° NNE
GP-B 4.3 20:29:08 10° NNE 20:31:49 23° ENE 20:31:49 23° ENE
Cosmos 1937 Rocket 3.4 20:30:20 10° NNW 20:35:37 69° ENE 20:39:53 16° SSE
Cosmos 1378 3.0 20:33:35 10° N 20:37:23 83° E 20:40:42 13° S
Meteor 1-24 Rocket 4.0 20:35:10 10° N 20:40:55 47° ENE 20:43:59 25° SE
USA 229 DEB 3.8 20:34:14 10° NNW 20:41:29 78° ENE 20:46:57 19° SE
USA 229 3.8 20:34:20 10° NNW 20:41:35 77° ENE 20:46:59 20° SE
Cosmos 909 Rocket 4.4 20:34:13 10° NNW 20:42:40 79° ENE 20:47:52 19° SSE
HJ-1C 3.8 20:41:24 12° S 20:44:26 62° W 20:47:46 10° NNW
Cosmos 2058 Rocket 3.7 20:41:32 10° SSW 20:45:48 57° W 20:50:06 10° N
Cosmos 2327 Rocket 4.3 20:41:29 10° S 20:47:35 72° E 20:53:40 10° N
Cosmos 2084 4.1 20:45:42 10° SW 20:49:45 52° WNW 20:53:37 10° NNE
Cosmos 2228 3.8 20:46:22 10° SSW 20:50:39 54° W 20:54:56 10° N
Cosmos 1763 Rocket 4.4 20:49:52 10° SW 20:54:44 47° WNW 20:59:42 10° N
NOSS 3-1 (C) 4.3 20:49:26 10° NNW 20:57:02 53° NE 21:00:23 35° ESE
MOS 1-B Rocket 4.0 20:55:10 27° SE 20:58:46 60° ENE 21:04:32 10° N
Meteor 2-8 Rocket 4.4 20:55:30 10° N 21:01:31 56° E 21:03:15 42° SE
Cosmos 540 Rocket 3.3 20:58:56 10° S 21:03:59 70° ESE 21:09:04 10° NNE
ATLAS CENTAUR R/B 2.8 20:53:39 10° NW 21:04:45 62° NE 21:05:46 52° E
Meteor 2-5 Rocket 4.3 21:00:30 10° NNW 21:06:16 61° W 21:11:52 10° S
GEOS 3 Rocket 3.8 21:02:57 10° NNE 21:08:21 76° NW 21:13:41 10° SW
Meteor 2-19 Rocket 4.3 21:02:57 10° S 21:08:57 70° E 21:14:59 10° NNE
Cosmos 1943 Rocket 3.3 21:07:36 10° NW 21:12:48 41° WSW 21:17:55 11° S
Spot 2 Rocket 3.4 21:12:52 55° SSE 21:14:01 90° SSW 21:19:05 10° NNW
Cosmos 836 Rocket 4.5 21:11:05 10° SSW 21:16:22 83° WNW 21:21:40 10° NNE
BREEZE-M DEB (TANK) 4.2 21:06:50 10° WSW 21:19:00 53° NW 21:21:11 30° NNE
Cosmos 1766 4.3 21:15:38 10° SSW 21:19:24 44° W 21:23:11 10° N
OAO 3 Copernicus 4.3 21:17:44 10° W 21:22:40 79° NNW 21:22:40 79° NNW
GPS 2-04 Rocket1 4.4 21:19:33 10° W 21:22:45 28° SW 21:22:45 28° SW
Cosmos 2154 Rocket 3.8 21:22:07 19° S 21:26:47 88° E 21:33:03 10° N
COSMOS 2406 3.7 21:22:46 10° SSW 21:28:22 60° WNW 21:34:02 10° NNE
Tiangong 2 4.4 21:30:29 10° WSW 21:30:36 10° WSW 21:30:36 10° WSW
Cosmos 2341 Rocket 4.3 21:34:13 50° NNE 21:34:13 50° NNE 21:38:49 10° NNE
Cosmos 1125 Rocket 4.4 21:35:21 10° NNW 21:38:48 41° N 21:38:48 41° N
Envisat 3.8 21:45:42 45° WSW 21:46:05 45° W 21:50:57 10° NNW
Resurs 01 Rocket 3.7 21:54:17 22° WSW 21:54:50 23° W 21:58:21 10° NW
Nadezhda 3 Rocket 4.5 21:59:42 10° NNW 22:05:26 57° WNW 22:05:26 57° WNW
ATLAS 2AS CENTAUR R/B 4.3 22:21:13 10° NNW 22:25:45 27° NNE 22:25:45 27° NNE
